Flag for United Kingdom Weather past 2 weeks in Sheffield, England, United Kingdom

Now
82 °F

Sunny.


Feels Like: 86 °F
Forecast: 63 / 72 °F
Wind: 5 mph from West

Location: Manchester Airport

Current Time: Jul 1, 2015 at 6:55:59 PM

Latest Report: Jul 1, 2015 at 6:20 PM


Visibility: 10 mi

Pressure: 29.80 "Hg

Humidity: 66%

Dew point: 70 °F

Location of SheffieldLocation

Historic Weather in Sheffield — Graph

°F

Sheffield temperature yesterday

Maximum temperature yesterday: 82 °F (at 5:20 PM)
Minimum temperature yesterday: 59 °F (at 2:50 AM)
Average temperature yesterday: 71 °F

Past Weeks' High & Low Weather Summary

 TemperatureHumidityPressure
High86 °F (Jul 1, 2:50 PM)100% (Jun 17, 6:20 AM)30.24 "Hg (Jun 17, 6:20 AM)
Low46 °F (Jun 18, 3:50 AM)39% (Jun 30, 8:20 PM)29.80 "Hg (Jun 22, 6:50 AM)
Average60 °F77%30.06 "Hg
* Reported Jun 16 5:20 PM — Jul 1 5:20 PM, Sheffield, Weather by CustomWeather, © 2015

Note: Actual official high and low records may vary slightly from our data, if they occured in-between our weather recording intervals... More about our weather records

Advertising

Sheffield weather history for previous 24 hours

 ConditionsComfort  
Time TempWeatherWind HumidityBarometerVisibility
5:20 PM
Wed, Jul 1
84 °FSunny.3 mph55%29.80 "Hg10 mi
4:50 PM86 °FPassing clouds.6 mph49%29.80 "HgN/A
4:20 PM86 °FPassing clouds.6 mph49%29.80 "HgN/A
3:50 PM84 °FSunny.7 mph51%29.83 "Hg10 mi
3:20 PM86 °FSunny.10 mph49%29.83 "Hg10 mi
2:50 PM86 °FPassing clouds.13 mph49%29.83 "HgN/A
2:20 PM84 °FPassing clouds.10 mph51%29.86 "HgN/A
1:50 PM82 °FPassing clouds.5 mph55%29.83 "HgN/A
1:20 PM82 °FPassing clouds.8 mph48%29.83 "HgN/A
12:50 PM82 °FPassing clouds.9 mph48%29.83 "HgN/A
12:20 PM82 °FSunny.12 mph48%29.83 "Hg10 mi
11:50 AM81 °FPassing clouds.9 mph51%29.86 "HgN/A
11:20 AM84 °FSunny.13 mph43%29.83 "Hg10 mi
10:50 AM84 °FSunny.15 mph40%29.83 "Hg10 mi
10:20 AM82 °FPassing clouds.17 mph42%29.83 "HgN/A
9:50 AM81 °FWarm.10 mph45%29.83 "HgN/A
9:20 AM77 °FPassing clouds.6 mph51%29.86 "HgN/A
8:50 AM77 °FPassing clouds.7 mph47%29.86 "HgN/A
8:20 AM75 °FSunny.2 mph50%29.86 "Hg10 mi
7:50 AM75 °FPassing clouds.6 mph50%29.86 "HgN/A
7:20 AM73 °FSunny.6 mph53%29.86 "Hg10 mi
6:50 AM72 °FPassing clouds.6 mph53%29.86 "HgN/A
6:20 AM70 °FPassing clouds.2 mph57%29.89 "HgN/A
5:50 AM68 °FPassing clouds.9 mph60%29.89 "HgN/A
5:20 AM68 °FPassing clouds.10 mph60%29.89 "HgN/A
4:50 AM70 °FClear.10 mph57%29.89 "Hg10 mi
4:20 AM68 °FClear.10 mph60%29.92 "Hg10 mi
3:50 AM66 °FClear.8 mph68%29.92 "Hg10 mi
3:20 AM68 °FClear.10 mph64%29.92 "Hg10 mi
2:50 AM68 °FClear.9 mph64%29.95 "Hg10 mi
2:20 AM68 °FClear.10 mph64%29.95 "Hg10 mi
1:50 AM70 °FClear.9 mph60%29.95 "Hg10 mi
1:20 AM70 °FClear.10 mph60%29.95 "Hg10 mi
12:50 AM72 °FClear.10 mph57%29.95 "Hg10 mi
12:20 AM72 °FPassing clouds.12 mph57%29.95 "HgN/A
11:50 PM
Tue, Jun 30
72 °FClear.9 mph50%29.95 "Hg10 mi
11:20 PM72 °FMild.8 mph50%29.95 "HgN/A
10:50 PM72 °FClear.9 mph47%29.95 "Hg10 mi
10:20 PM72 °FSunny.8 mph50%29.98 "Hg10 mi
9:50 PM75 °FSunny.9 mph47%29.98 "Hg10 mi
9:20 PM75 °FSunny.7 mph47%29.95 "Hg10 mi
8:50 PM77 °FSunny.8 mph42%29.95 "Hg10 mi
8:20 PM79 °FSunny.8 mph39%29.98 "Hg10 mi
7:50 PM81 °FSunny.8 mph42%29.98 "Hg10 mi
7:20 PM81 °FSunny.12 mph42%29.95 "Hg10 mi
6:50 PM81 °FSunny.12 mph42%29.98 "Hg10 mi
Weather by CustomWeather, © 2015

See weather overviewHow to use our weather pages